| time (UTC) | temp F | wind direction | speed MPH | gust MPH | rain 1hr in | rain 24hr in | rain mn in | humidity % | barometer mb |
| 20260902064856 | 66 | 90 | 1.0 | 3.0 | 0.00 | 0.00 | 0.00 | 87 | 1022.1 |
| 20260902064324 | 65 | 51 | 0.0 | 4.0 | 0.00 | 0.00 | 0.00 | 86 | 1022.0 |
| 20260902063824 | 65 | 121 | 1.0 | 4.0 | 0.00 | 0.00 | 0.00 | 87 | 1022.0 |
| 20260902063316 | 65 | 41 | 1.0 | 4.0 | 0.00 | 0.00 | 0.00 | 87 | 1021.9 |
| 20260902062830 | 65 | 62 | 2.0 | 8.0 | 0.00 | 0.00 | 0.00 | 87 | 1021.9 |
| 20260902062321 | 65 | 51 | 3.0 | 8.0 | 0.00 | 0.00 | 0.00 | 86 | 1021.9 |
| 20260902061841 | 65 | 52 | 1.0 | 8.0 | 0.00 | 0.00 | 0.00 | 86 | 1021.8 |
| 20260902061425 | 65 | 95 | 2.0 | 6.0 | 0.00 | 0.00 | 0.00 | 86 | 1021.7 |
| 20260902060826 | 65 | 92 | 1.0 | 6.0 | 0.00 | 0.00 | 0.00 | 86 | 1021.7 |
| 20260902060316 | 65 | 99 | 1.0 | 6.0 | 0.00 | 0.00 | 0.00 | 86 | 1021.6 |
| 20260902055824 | 65 | 75 | 3.0 | 8.0 | 0.00 | 0.00 | 0.00 | 86 | 1021.7 |
| 20260902055343 | 65 | 321 | 4.0 | 8.0 | 0.00 | 0.00 | 0.00 | 86 | 1021.6 |
| 20260902054816 | 65 | 86 | 1.0 | 6.0 | 0.00 | 0.00 | 0.00 | 86 | 1021.4 |
| 20260902054354 | 65 | 50 | 0.0 | 10.0 | 0.00 | 0.00 | 0.00 | 86 | 1021.4 |
| 20260902053824 | 65 | 322 | 2.0 | 10.0 | 0.00 | 0.00 | 0.00 | 86 | 1021.5 |
| 20260902053329 | 65 | 93 | 3.0 | 9.0 | 0.00 | 0.00 | 0.00 | 86 | 1021.3 |
| 20260902052823 | 65 | 225 | 1.0 | 9.0 | 0.00 | 0.00 | 0.00 | 86 | 1021.2 |
| 20260902052341 | 65 | 311 | 2.0 | 9.0 | 0.00 | 0.00 | 0.00 | 86 | 1021.2 |
| 20260902051827 | 65 | 310 | 1.0 | 12.0 | 0.00 | 0.00 | 0.00 | 86 | 1021.1 |
| 20260902051316 | 65 | 360 | 2.0 | 12.0 | 0.00 | 0.00 | 0.00 | 86 | 1021.0 |
| 20260902050816 | 65 | 86 | 4.0 | 12.0 | 0.00 | 0.00 | 0.00 | 86 | 1020.9 |
| 20260902050313 | 65 | 308 | 3.0 | 12.0 | 0.00 | 0.00 | 0.00 | 86 | 1020.8 |
| 20260902045827 | 65 | 73 | 2.0 | 16.0 | 0.00 | 0.00 | 0.00 | 86 | 1020.8 |
| 20260902045322 | 65 | 132 | 8.0 | 17.0 | 0.00 | 0.00 | 0.00 | 86 | 1020.8 |
| 20260902044818 | 65 | 79 | 8.0 | 18.0 | 0.00 | 0.00 | 0.00 | 86 | 1020.7 |
| 20260902044325 | 65 | 88 | 7.0 | 19.0 | 0.00 | 0.00 | 0.00 | 86 | 1020.6 |
| 20260902043818 | 65 | 47 | 7.0 | 19.0 | 0.00 | 0.00 | 0.00 | 86 | 1020.6 |
| 20260902043332 | 65 | 53 | 8.0 | 18.0 | 0.00 | 0.00 | 0.00 | 86 | 1020.6 |
| 20260902042823 | 65 | 51 | 9.0 | 17.0 | 0.00 | 0.00 | 0.00 | 86 | 1020.8 |
| 20260902042325 | 65 | 59 | 9.0 | 17.0 | 0.00 | 0.00 | 0.00 | 86 | 1020.8 |
| 20260902041833 | 65 | 28 | 9.0 | 17.0 | 0.00 | 0.00 | 0.00 | 86 | 1020.8 |
| 20260902041325 | 66 | 41 | 8.0 | 17.0 | 0.00 | 0.00 | 0.00 | 85 | 1020.9 |
| 20260902040822 | 66 | 355 | 9.0 | 18.0 | 0.00 | 0.00 | 0.00 | 85 | 1021.0 |
| 20260902040314 | 66 | 355 | 8.0 | 17.0 | 0.00 | 0.00 | 0.00 | 85 | 1021.0 |
| 20260902035813 | 66 | 67 | 7.0 | 16.0 | 0.00 | 0.00 | 0.00 | 85 | 1021.0 |
| 20260902035325 | 66 | 338 | 8.0 | 20.0 | 0.00 | 0.00 | 0.00 | 85 | 1021.0 |
| 20260902034818 | 66 | 330 | 10.0 | 20.0 | 0.00 | 0.00 | 0.00 | 85 | 1021.0 |
| 20260902034333 | 66 | 65 | 8.0 | 19.0 | 0.00 | 0.00 | 0.00 | 85 | 1021.1 |
| 20260902033831 | 66 | 65 | 10.0 | 20.0 | 0.00 | 0.00 | 0.00 | 85 | 1021.1 |
| 20260902033316 | 66 | 31 | 9.0 | 16.0 | 0.00 | 0.00 | 0.00 | 85 | 1021.1 |
| 20260902032814 | 66 | 42 | 6.0 | 16.0 | 0.00 | 0.00 | 0.00 | 85 | 1021.2 |
| 20260902032330 | 66 | 71 | 8.0 | 19.0 | 0.00 | 0.00 | 0.00 | 85 | 1021.2 |
| 20260902031828 | 66 | 42 | 10.0 | 19.0 | 0.00 | 0.00 | 0.00 | 85 | 1021.3 |
| 20260902031325 | 66 | 346 | 9.0 | 16.0 | 0.00 | 0.00 | 0.00 | 85 | 1021.3 |
| 20260902030822 | 66 | 309 | 5.0 | 16.0 | 0.00 | 0.00 | 0.00 | 85 | 1021.4 |
| 20260902030321 | 66 | 334 | 7.0 | 18.0 | 0.00 | 0.00 | 0.00 | 85 | 1021.4 |
| 20260902025827 | 66 | 300 | 7.0 | 18.0 | 0.00 | 0.00 | 0.00 | 85 | 1021.5 |
| 20260902025321 | 66 | 360 | 9.0 | 16.0 | 0.00 | 0.00 | 0.00 | 85 | 1021.4 |
| 20260902024821 | 66 | 39 | 6.0 | 16.0 | 0.00 | 0.00 | 0.00 | 85 | 1021.4 |
| 20260902024318 | 66 | 315 | 10.0 | 16.0 | 0.00 | 0.00 | 0.00 | 85 | 1021.5 |
| 20260902023822 | 66 | 32 | 10.0 | 16.0 | 0.00 | 0.00 | 0.00 | 85 | 1021.4 |
| 20260902023338 | 66 | 42 | 6.0 | 15.0 | 0.00 | 0.00 | 0.00 | 85 | 1021.4 |
| 20260902022840 | 66 | 34 | 8.0 | 22.0 | 0.00 | 0.00 | 0.00 | 85 | 1021.5 |
| 20260902022332 | 66 | 74 | 9.0 | 22.0 | 0.00 | 0.00 | 0.00 | 85 | 1021.6 |
| 20260902021820 | 66 | 333 | 9.0 | 19.0 | 0.00 | 0.00 | 0.00 | 85 | 1021.6 |
| 20260902021353 | 66 | 53 | 9.0 | 19.0 | 0.00 | 0.00 | 0.00 | 85 | 1021.6 |
| 20260902020824 | 66 | 40 | 7.0 | 17.0 | 0.00 | 0.00 | 0.00 | 85 | 1021.5 |
| 20260902020317 | 66 | 47 | 6.0 | 16.0 | 0.00 | 0.00 | 0.00 | 85 | 1021.6 |
| 20260902015853 | 66 | 73 | 9.0 | 17.0 | 0.00 | 0.00 | 0.00 | 85 | 1021.5 |
| 20260902015347 | 66 | 349 | 10.0 | 19.0 | 0.00 | 0.00 | 0.00 | 85 | 1021.6 |
| 20260902014831 | 66 | 75 | 9.0 | 17.0 | 0.00 | 0.00 | 0.00 | 85 | 1021.6 |
| 20260902014318 | 66 | 87 | 7.0 | 18.0 | 0.00 | 0.00 | 0.00 | 85 | 1021.6 |
| 20260902013846 | 66 | 355 | 9.0 | 17.0 | 0.00 | 0.00 | 0.00 | 85 | 1021.8 |
| 20260902013339 | 66 | 28 | 9.0 | 19.0 | 0.00 | 0.00 | 0.00 | 85 | 1021.8 |
| 20260902012851 | 66 | 308 | 12.0 | 24.0 | 0.00 | 0.00 | 0.00 | 85 | 1021.9 |
| 20260902012317 | 66 | 346 | 10.0 | 23.0 | 0.00 | 0.00 | 0.00 | 85 | 1021.9 |
| 20260902011835 | 66 | 39 | 11.0 | 23.0 | 0.00 | 0.00 | 0.00 | 85 | 1021.9 |
| 20260902011328 | 66 | 75 | 9.0 | 19.0 | 0.00 | 0.00 | 0.00 | 85 | 1021.9 |
| 20260902010836 | 66 | 355 | 8.0 | 21.0 | 0.00 | 0.00 | 0.00 | 84 | 1021.7 |
| 20260902010326 | 66 | 55 | 11.0 | 18.0 | 0.00 | 0.00 | 0.00 | 84 | 1021.8 |
| 20260902005824 | 66 | 322 | 9.0 | 19.0 | 0.00 | 0.00 | 0.00 | 84 | 1021.8 |
| 20260902005335 | 66 | 64 | 11.0 | 21.0 | 0.00 | 0.00 | 0.00 | 84 | 1021.8 |
| 20260902004829 | 66 | 33 | 10.0 | 22.0 | 0.00 | 0.00 | 0.00 | 84 | 1021.9 |
| 20260902004318 | 66 | 55 | 10.0 | 21.0 | 0.00 | 0.00 | 0.00 | 84 | 1021.8 |
| 20260902003817 | 66 | 360 | 10.0 | 20.0 | 0.00 | 0.00 | 0.00 | 85 | 1021.8 |
| 20260902003324 | 66 | 51 | 12.0 | 19.0 | 0.00 | 0.00 | 0.00 | 85 | 1021.8 |
| 20260902002815 | 66 | 39 | 11.0 | 19.0 | 0.00 | 0.00 | 0.00 | 85 | 1021.9 |
| 20260902002331 | 66 | 355 | 10.0 | 19.0 | 0.00 | 0.00 | 0.00 | 84 | 1021.9 |
| 20260902001823 | 66 | 41 | 6.0 | 21.0 | 0.00 | 0.00 | 0.00 | 84 | 1021.9 |
| 20260902001326 | 66 | 55 | 10.0 | 21.0 | 0.00 | 0.00 | 0.00 | 84 | 1021.9 |
| 20260902000825 | 66 | 340 | 9.0 | 23.0 | 0.00 | 0.00 | 0.00 | 84 | 1021.9 |
| 20260902000322 | 66 | 348 | 8.0 | 23.0 | 0.00 | 0.00 | 0.00 | 84 | 1021.9 |
| 20260901235814 | 66 | 70 | 9.0 | 23.0 | 0.00 | 0.00 | 0.00 | 84 | 1021.9 |
| 20260901235338 | 66 | 36 | 9.0 | 25.0 | 0.00 | 0.00 | 0.00 | 84 | 1021.8 |
| 20260901234832 | 67 | 34 | 10.0 | 25.0 | 0.00 | 0.00 | 0.00 | 84 | 1021.9 |
| 20260901234326 | 67 | 101 | 10.0 | 20.0 | 0.00 | 0.00 | 0.00 | 84 | 1021.8 |
| 20260901233827 | 67 | 360 | 10.0 | 20.0 | 0.00 | 0.00 | 0.00 | 83 | 1021.8 |
| 20260901233322 | 67 | 329 | 9.0 | 21.0 | 0.00 | 0.00 | 0.00 | 83 | 1021.9 |
| 20260901232824 | 67 | 360 | 10.0 | 21.0 | 0.00 | 0.00 | 0.00 | 83 | 1022.0 |
| 20260901232346 | 67 | 336 | 10.0 | 20.0 | 0.00 | 0.00 | 0.00 | 83 | 1022.0 |
| 20260901231839 | 67 | 326 | 10.0 | 18.0 | 0.00 | 0.00 | 0.00 | 83 | 1022.1 |
| 20260901231317 | 67 | 53 | 11.0 | 21.0 | 0.00 | 0.00 | 0.00 | 84 | 1022.1 |
| 20260901230831 | 67 | 323 | 12.0 | 21.0 | 0.00 | 0.00 | 0.00 | 83 | 1022.0 |
| 20260901230334 | 67 | 337 | 6.0 | 16.0 | 0.00 | 0.00 | 0.00 | 83 | 1022.0 |
| 20260901225829 | 67 | 80 | 9.0 | 19.0 | 0.00 | 0.00 | 0.00 | 84 | 1022.2 |
| 20260901225352 | 67 | 75 | 11.0 | 19.0 | 0.00 | 0.00 | 0.00 | 84 | 1022.2 |
| 20260901224855 | 67 | 88 | 8.0 | 15.0 | 0.00 | 0.00 | 0.00 | 84 | 1022.3 |
| 20260901224330 | 67 | 42 | 6.0 | 15.0 | 0.00 | 0.00 | 0.00 | 84 | 1022.3 |
| 20260901223830 | 67 | 325 | 6.0 | 15.0 | 0.00 | 0.00 | 0.00 | 83 | 1022.5 |
| 20260901223336 | 67 | 86 | 7.0 | 13.0 | 0.00 | 0.00 | 0.00 | 83 | 1022.5 |
| 20260901222835 | 67 | 327 | 4.0 | 13.0 | 0.00 | 0.00 | 0.00 | 83 | 1022.5 |
| 20260901222356 | 67 | 63 | 5.0 | 14.0 | 0.00 | 0.00 | 0.00 | 83 | 1022.6 |
| 20260901221830 | 67 | 338 | 7.0 | 16.0 | 0.00 | 0.00 | 0.00 | 83 | 1022.6 |
| 20260901221327 | 67 | 30 | 7.0 | 19.0 | 0.00 | 0.00 | 0.00 | 83 | 1022.6 |
| 20260901220827 | 67 | 42 | 10.0 | 19.0 | 0.00 | 0.00 | 0.00 | 83 | 1022.7 |
| 20260901220323 | 67 | 50 | 6.0 | 14.0 | 0.00 | 0.00 | 0.00 | 82 | 1022.6 |
| 20260901215827 | 67 | 360 | 3.0 | 16.0 | 0.00 | 0.00 | 0.00 | 82 | 1022.6 |
| 20260901215323 | 67 | 322 | 4.0 | 9.0 | 0.00 | 0.00 | 0.00 | 82 | 1022.8 |
| 20260901214845 | 67 | 300 | 3.0 | 9.0 | 0.00 | 0.00 | 0.00 | 82 | 1022.9 |
| 20260901214320 | 67 | 78 | 1.0 | 14.0 | 0.00 | 0.00 | 0.00 | 82 | 1022.8 |
| 20260901213816 | 67 | 107 | 6.0 | 14.0 | 0.00 | 0.00 | 0.00 | 82 | 1022.8 |
| 20260901213318 | 67 | 360 | 3.0 | 9.0 | 0.00 | 0.00 | 0.00 | 81 | 1022.9 |
| 20260901212813 | 67 | 147 | 3.0 | 10.0 | 0.00 | 0.00 | 0.00 | 81 | 1022.8 |
| 20260901212333 | 67 | 128 | 4.0 | 10.0 | 0.00 | 0.00 | 0.00 | 81 | 1022.8 |
| 20260901211829 | 68 | 120 | 3.0 | 10.0 | 0.00 | 0.00 | 0.00 | 81 | 1022.8 |
| 20260901211331 | 68 | 143 | 6.0 | 14.0 | 0.00 | 0.00 | 0.00 | 81 | 1022.6 |
| 20260901210825 | 68 | 73 | 3.0 | 13.0 | 0.00 | 0.00 | 0.00 | 80 | 1022.6 |
| 20260901210329 | 68 | 318 | 4.0 | 19.0 | 0.00 | 0.00 | 0.00 | 80 | 1022.4 |
| 20260901205824 | 68 | 355 | 9.0 | 20.0 | 0.00 | 0.00 | 0.00 | 80 | 1022.4 |
| 20260901205328 | 68 | 360 | 3.0 | 20.0 | 0.00 | 0.00 | 0.00 | 80 | 1022.3 |
| 20260901204822 | 68 | 328 | 6.0 | 20.0 | 0.00 | 0.00 | 0.00 | 80 | 1022.1 |
| 20260901204318 | 68 | 64 | 9.0 | 20.0 | 0.00 | 0.00 | 0.00 | 80 | 1022.1 |
| 20260901203820 | 68 | 273 | 9.0 | 22.0 | 0.00 | 0.00 | 0.00 | 80 | 1022.0 |
| 20260901203316 | 68 | 37 | 11.0 | 22.0 | 0.00 | 0.00 | 0.00 | 80 | 1021.8 |
| 20260901202818 | 68 | 343 | 10.0 | 24.0 | 0.00 | 0.00 | 0.00 | 80 | 1021.8 |
| 20260901202325 | 68 | 348 | 10.0 | 20.0 | 0.00 | 0.00 | 0.00 | 80 | 1021.9 |
| 20260901201840 | 68 | 338 | 10.0 | 21.0 | 0.00 | 0.00 | 0.00 | 79 | 1021.8 |
| 20260901201323 | 68 | 360 | 9.0 | 19.0 | 0.00 | 0.00 | 0.00 | 79 | 1021.7 |
| 20260901200820 | 68 | 339 | 10.0 | 19.0 | 0.00 | 0.00 | 0.00 | 79 | 1021.6 |
| 20260901200344 | 68 | 355 | 7.0 | 22.0 | 0.00 | 0.00 | 0.00 | 79 | 1021.6 |
| 20260901195817 | 68 | 327 | 9.0 | 22.0 | 0.00 | 0.00 | 0.00 | 78 | 1021.7 |
| 20260901195340 | 68 | 360 | 10.0 | 18.0 | 0.00 | 0.00 | 0.00 | 78 | 1021.6 |
| 20260901194815 | 68 | 306 | 8.0 | 18.0 | 0.00 | 0.00 | 0.00 | 78 | 1021.6 |
| 20260901194318 | 68 | 355 | 9.0 | 21.0 | 0.00 | 0.00 | 0.00 | 78 | 1021.6 |
| 20260901193815 | 69 | 350 | 12.0 | 21.0 | 0.00 | 0.00 | 0.00 | 78 | 1021.5 |
| 20260901193336 | 69 | 56 | 8.0 | 16.0 | 0.00 | 0.00 | 0.00 | 77 | 1021.4 |
| 20260901192813 | 69 | 360 | 7.0 | 20.0 | 0.00 | 0.00 | 0.00 | 77 | 1021.4 |
| 20260901192316 | 69 | 9 | 10.0 | 19.0 | 0.00 | 0.00 | 0.00 | 77 | 1021.4 |
| 20260901191832 | 69 | 346 | 11.0 | 20.0 | 0.00 | 0.00 | 0.00 | 77 | 1021.4 |
| 20260901191334 | 69 | 42 | 9.0 | 18.0 | 0.00 | 0.00 | 0.00 | 77 | 1021.3 |
| 20260901190830 | 69 | 360 | 12.0 | 19.0 | 0.00 | 0.00 | 0.00 | 77 | 1021.4 |
| 20260901190325 | 69 | 339 | 9.0 | 19.0 | 0.00 | 0.00 | 0.00 | 77 | 1021.5 |
| 20260901185842 | 69 | 69 | 7.0 | 20.0 | 0.00 | 0.00 | 0.00 | 77 | 1021.4 |
| 20260901185325 | 69 | 348 | 9.0 | 20.0 | 0.00 | 0.00 | 0.00 | 76 | 1021.3 |
| 20260901184819 | 70 | 49 | 11.0 | 22.0 | 0.00 | 0.00 | 0.00 | 76 | 1021.4 |
| 20260901184322 | 70 | 348 | 13.0 | 22.0 | 0.00 | 0.00 | 0.00 | 76 | 1021.3 |
| 20260901183819 | 70 | 42 | 10.0 | 23.0 | 0.00 | 0.00 | 0.00 | 76 | 1021.4 |
| 20260901183316 | 70 | 360 | 14.0 | 23.0 | 0.00 | 0.00 | 0.00 | 75 | 1021.4 |
| 20260901182819 | 70 | 333 | 9.0 | 21.0 | 0.00 | 0.00 | 0.00 | 75 | 1021.4 |
| 20260901182314 | 71 | 340 | 12.0 | 21.0 | 0.00 | 0.00 | 0.00 | 75 | 1021.4 |
| 20260901181817 | 71 | 329 | 10.0 | 19.0 | 0.00 | 0.00 | 0.00 | 74 | 1021.4 |
| 20260901181337 | 71 | 339 | 9.0 | 19.0 | 0.00 | 0.00 | 0.00 | 74 | 1021.4 |
| 20260901180827 | 71 | 330 | 10.0 | 20.0 | 0.00 | 0.00 | 0.00 | 74 | 1021.2 |
| 20260901180324 | 71 | 42 | 11.0 | 20.0 | 0.00 | 0.00 | 0.00 | 74 | 1021.4 |
| 20260901175826 | 72 | 360 | 9.0 | 20.0 | 0.00 | 0.00 | 0.00 | 74 | 1021.5 |
| 20260901175318 | 72 | 360 | 9.0 | 23.0 | 0.00 | 0.00 | 0.00 | 74 | 1021.4 |
| 20260901174842 | 72 | 326 | 17.0 | 23.0 | 0.00 | 0.00 | 0.00 | 72 | 1021.4 |
| 20260901174316 | 72 | 325 | 9.0 | 25.0 | 0.00 | 0.00 | 0.00 | 72 | 1021.5 |
| 20260901173820 | 73 | 46 | 9.0 | 25.0 | 0.00 | 0.00 | 0.00 | 72 | 1021.4 |
| 20260901173316 | 73 | 40 | 9.0 | 19.0 | 0.00 | 0.00 | 0.00 | 71 | 1021.2 |
| 20260901172836 | 73 | 57 | 9.0 | 19.0 | 0.00 | 0.00 | 0.00 | 70 | 1021.2 |
| 20260901172333 | 73 | 86 | 8.0 | 19.0 | 0.00 | 0.00 | 0.00 | 70 | 1021.2 |
| 20260901171824 | 73 | 65 | 7.0 | 19.0 | 0.00 | 0.00 | 0.00 | 70 | 1021.1 |
| 20260901171327 | 73 | 42 | 7.0 | 25.0 | 0.00 | 0.00 | 0.00 | 70 | 1021.1 |
| 20260901170823 | 73 | 40 | 9.0 | 25.0 | 0.00 | 0.00 | 0.00 | 70 | 1021.1 |
| 20260901170326 | 73 | 360 | 13.0 | 21.0 | 0.00 | 0.00 | 0.00 | 70 | 1021.1 |
| 20260901165822 | 73 | 337 | 10.0 | 20.0 | 0.00 | 0.00 | 0.00 | 70 | 1021.1 |
| 20260901165315 | 73 | 84 | 12.0 | 20.0 | 0.00 | 0.00 | 0.00 | 70 | 1021.2 |
| 20260901164816 | 73 | 338 | 11.0 | 20.0 | 0.00 | 0.00 | 0.00 | 70 | 1021.2 |
| 20260901164339 | 73 | 360 | 9.0 | 20.0 | 0.00 | 0.00 | 0.00 | 69 | 1021.3 |
| 20260901163832 | 73 | 45 | 10.0 | 20.0 | 0.00 | 0.00 | 0.00 | 69 | 1021.2 |
| 20260901163335 | 74 | 360 | 9.0 | 18.0 | 0.00 | 0.00 | 0.00 | 68 | 1021.2 |
| 20260901162831 | 74 | 34 | 11.0 | 18.0 | 0.00 | 0.00 | 0.00 | 66 | 1021.1 |
| 20260901162354 | 75 | 360 | 10.0 | 18.0 | 0.00 | 0.00 | 0.00 | 65 | 1021.1 |
| 20260901161848 | 75 | 317 | 7.0 | 15.0 | 0.00 | 0.00 | 0.00 | 65 | 1021.1 |
| 20260901161351 | 75 | 42 | 10.0 | 15.0 | 0.00 | 0.00 | 0.00 | 63 | 1021.0 |
| 20260901160832 | 75 | 45 | 8.0 | 17.0 | 0.00 | 0.00 | 0.00 | 64 | 1021.1 |
| 20260901160328 | 75 | 324 | 10.0 | 21.0 | 0.00 | 0.00 | 0.00 | 64 | 1021.1 |
| 20260901155822 | 75 | 319 | 10.0 | 23.0 | 0.00 | 0.00 | 0.00 | 63 | 1021.0 |
| 20260901155325 | 75 | 360 | 10.0 | 20.0 | 0.00 | 0.00 | 0.00 | 65 | 1021.1 |
| 20260901154821 | 75 | 331 | 11.0 | 20.0 | 0.00 | 0.00 | 0.00 | 66 | 1021.0 |
| 20260901154324 | 75 | 69 | 8.0 | 18.0 | 0.00 | 0.00 | 0.00 | 66 | 1021.2 |
| 20260901153820 | 75 | 360 | 9.0 | 18.0 | 0.00 | 0.00 | 0.00 | 67 | 1021.1 |
| 20260901153343 | 76 | 318 | 6.0 | 19.0 | 0.00 | 0.00 | 0.00 | 67 | 1021.1 |
| 20260901152819 | 75 | 360 | 10.0 | 19.0 | 0.00 | 0.00 | 0.00 | 67 | 1021.0 |
| 20260901152314 | 75 | 360 | 11.0 | 18.0 | 0.00 | 0.00 | 0.00 | 67 | 1021.0 |
| 20260901151838 | 76 | 38 | 9.0 | 22.0 | 0.00 | 0.00 | 0.00 | 67 | 1021.0 |
| 20260901151322 | 76 | 56 | 12.0 | 22.0 | 0.00 | 0.00 | 0.00 | 66 | 1021.0 |
| 20260901150818 | 76 | 355 | 6.0 | 22.0 | 0.00 | 0.00 | 0.00 | 67 | 1020.9 |
| 20260901150336 | 76 | 339 | 11.0 | 22.0 | 0.00 | 0.00 | 0.00 | 66 | 1020.9 |
| 20260901145815 | 76 | 46 | 10.0 | 18.0 | 0.00 | 0.00 | 0.00 | 66 | 1020.9 |
| 20260901145327 | 76 | 311 | 10.0 | 18.0 | 0.00 | 0.00 | 0.00 | 65 | 1021.0 |
| 20260901144828 | 77 | 360 | 5.0 | 17.0 | 0.00 | 0.00 | 0.00 | 66 | 1021.0 |
| 20260901144353 | 76 | 78 | 6.0 | 17.0 | 0.00 | 0.00 | 0.00 | 66 | 1021.0 |
| 20260901143828 | 76 | 316 | 9.0 | 16.0 | 0.00 | 0.00 | 0.00 | 65 | 1021.0 |
| 20260901143325 | 76 | 70 | 9.0 | 18.0 | 0.00 | 0.00 | 0.00 | 65 | 1020.8 |
| 20260901142829 | 76 | 360 | 10.0 | 19.0 | 0.00 | 0.00 | 0.00 | 66 | 1021.0 |
| 20260901142324 | 76 | 355 | 9.0 | 19.0 | 0.00 | 0.00 | 0.00 | 65 | 1021.0 |
| 20260901141819 | 76 | 329 | 7.0 | 15.0 | 0.00 | 0.00 | 0.00 | 66 | 1021.0 |
| 20260901141320 | 76 | 346 | 9.0 | 18.0 | 0.00 | 0.00 | 0.00 | 66 | 1021.1 |
| 20260901140831 | 76 | 338 | 7.0 | 16.0 | 0.00 | 0.00 | 0.00 | 66 | 1021.1 |
| 20260901140334 | 76 | 40 | 10.0 | 17.0 | 0.00 | 0.00 | 0.00 | 66 | 1021.2 |
| 20260901135828 | 76 | 328 | 7.0 | 18.0 | 0.00 | 0.00 | 0.00 | 66 | 1021.2 |
| 20260901135331 | 76 | 91 | 9.0 | 19.0 | 0.00 | 0.00 | 0.00 | 66 | 1021.3 |
| 20260901134826 | 76 | 360 | 9.0 | 21.0 | 0.00 | 0.00 | 0.00 | 66 | 1021.2 |
| 20260901134329 | 76 | 51 | 11.0 | 20.0 | 0.00 | 0.00 | 0.00 | 65 | 1021.2 |
| 20260901133824 | 76 | 360 | 9.0 | 22.0 | 0.00 | 0.00 | 0.00 | 67 | 1021.3 |
| 20260901133328 | 75 | 355 | 11.0 | 22.0 | 0.00 | 0.00 | 0.00 | 66 | 1021.3 |
| 20260901132824 | 75 | 321 | 10.0 | 21.0 | 0.00 | 0.00 | 0.00 | 67 | 1021.4 |
| 20260901132319 | 75 | 360 | 12.0 | 20.0 | 0.00 | 0.00 | 0.00 | 66 | 1021.4 |
| 20260901131822 | 75 | 355 | 8.0 | 16.0 | 0.00 | 0.00 | 0.00 | 66 | 1021.4 |
| 20260901131316 | 75 | 69 | 9.0 | 18.0 | 0.00 | 0.00 | 0.00 | 67 | 1021.5 |
| 20260901130816 | 75 | 293 | 9.0 | 18.0 | 0.00 | 0.00 | 0.00 | 66 | 1021.6 |
| 20260901130332 | 75 | 319 | 9.0 | 18.0 | 0.00 | 0.00 | 0.00 | 67 | 1021.6 |
| 20260901125832 | 75 | 45 | 7.0 | 22.0 | 0.00 | 0.00 | 0.00 | 67 | 1021.6 |
| 20260901125329 | 75 | 342 | 9.0 | 22.0 | 0.00 | 0.00 | 0.00 | 67 | 1021.8 |
| 20260901124831 | 75 | 360 | 8.0 | 21.0 | 0.00 | 0.00 | 0.00 | 67 | 1021.7 |
| 20260901124324 | 75 | 360 | 11.0 | 21.0 | 0.00 | 0.00 | 0.00 | 67 | 1021.7 |
| 20260901123819 | 75 | 360 | 5.0 | 19.0 | 0.00 | 0.00 | 0.00 | 67 | 1021.7 |
| 20260901123316 | 74 | 333 | 10.0 | 20.0 | 0.00 | 0.00 | 0.00 | 67 | 1021.7 |
| 20260901122819 | 74 | 360 | 11.0 | 20.0 | 0.00 | 0.00 | 0.00 | 67 | 1021.7 |
| 20260901122345 | 74 | 342 | 10.0 | 20.0 | 0.00 | 0.00 | 0.00 | 67 | 1021.7 |
| 20260901121834 | 74 | 9 | 12.0 | 20.0 | 0.00 | 0.00 | 0.00 | 66 | 1021.7 |
| 20260901121337 | 74 | 360 | 11.0 | 24.0 | 0.00 | 0.00 | 0.00 | 67 | 1021.6 |
| 20260901120828 | 74 | 51 | 11.0 | 24.0 | 0.00 | 0.00 | 0.00 | 67 | 1021.7 |
| 20260901120350 | 74 | 70 | 9.0 | 22.0 | 0.00 | 0.00 | 0.00 | 67 | 1021.6 |
| 20260901115832 | 73 | 346 | 11.0 | 21.0 | 0.00 | 0.00 | 0.00 | 67 | 1021.6 |
| 20260901115329 | 74 | 44 | 11.0 | 24.0 | 0.00 | 0.00 | 0.00 | 67 | 1021.6 |
| 20260901114824 | 74 | 44 | 10.0 | 24.0 | 0.00 | 0.00 | 0.00 | 67 | 1021.7 |
| 20260901114322 | 73 | 360 | 11.0 | 23.0 | 0.00 | 0.00 | 0.00 | 68 | 1021.6 |
| 20260901113838 | 73 | 328 | 11.0 | 24.0 | 0.00 | 0.00 | 0.00 | 68 | 1021.7 |
| 20260901113315 | 73 | 360 | 13.0 | 24.0 | 0.00 | 0.00 | 0.00 | 69 | 1021.8 |
| 20260901112828 | 73 | 360 | 14.0 | 24.0 | 0.00 | 0.00 | 0.00 | 69 | 1021.6 |
| 20260901112347 | 73 | 54 | 9.0 | 22.0 | 0.00 | 0.00 | 0.00 | 69 | 1021.7 |
| 20260901111821 | 73 | 360 | 11.0 | 24.0 | 0.00 | 0.00 | 0.00 | 69 | 1021.8 |
| 20260901111325 | 73 | 360 | 14.0 | 24.0 | 0.00 | 0.00 | 0.00 | 69 | 1021.8 |
| 20260901110819 | 73 | 360 | 13.0 | 22.0 | 0.00 | 0.00 | 0.00 | 69 | 1021.8 |
| 20260901110321 | 73 | 42 | 11.0 | 18.0 | 0.00 | 0.00 | 0.00 | 69 | 1022.1 |
| 20260901105844 | 72 | 324 | 9.0 | 20.0 | 0.00 | 0.00 | 0.00 | 71 | 1022.1 |
| 20260901105315 | 72 | 329 | 11.0 | 22.0 | 0.00 | 0.00 | 0.00 | 72 | 1022.3 |
| 20260901104836 | 71 | 83 | 11.0 | 24.0 | 0.00 | 0.00 | 0.00 | 72 | 1022.1 |
| 20260901104322 | 71 | 360 | 11.0 | 24.0 | 0.00 | 0.00 | 0.00 | 72 | 1022.2 |
| 20260901103818 | 71 | 327 | 10.0 | 23.0 | 0.00 | 0.00 | 0.00 | 72 | 1022.2 |
| 20260901103320 | 71 | 334 | 16.0 | 23.0 | 0.00 | 0.00 | 0.00 | 72 | 1021.9 |
| 20260901102816 | 72 | 316 | 12.0 | 23.0 | 0.00 | 0.00 | 0.00 | 72 | 1022.0 |
| 20260901102319 | 71 | 339 | 14.0 | 22.0 | 0.00 | 0.00 | 0.00 | 72 | 1022.0 |
| 20260901101835 | 71 | 344 | 7.0 | 19.0 | 0.00 | 0.00 | 0.00 | 73 | 1022.1 |
| 20260901101338 | 71 | 360 | 9.0 | 21.0 | 0.00 | 0.00 | 0.00 | 73 | 1022.2 |
| 20260901100838 | 71 | 295 | 13.0 | 21.0 | 0.00 | 0.00 | 0.00 | 73 | 1022.1 |
| 20260901100352 | 71 | 360 | 10.0 | 18.0 | 0.00 | 0.00 | 0.00 | 74 | 1022.3 |
| 20260901095832 | 70 | 42 | 10.0 | 19.0 | 0.00 | 0.00 | 0.00 | 74 | 1022.3 |
| 20260901095328 | 70 | 336 | 9.0 | 20.0 | 0.00 | 0.00 | 0.00 | 74 | 1022.2 |
| 20260901094832 | 71 | 360 | 11.0 | 17.0 | 0.00 | 0.00 | 0.00 | 74 | 1022.2 |
| 20260901094330 | 70 | 324 | 8.0 | 16.0 | 0.00 | 0.00 | 0.00 | 74 | 1022.2 |
| 20260901093823 | 70 | 63 | 8.0 | 18.0 | 0.00 | 0.00 | 0.00 | 74 | 1022.2 |
| 20260901093326 | 70 | 317 | 6.0 | 17.0 | 0.00 | 0.00 | 0.00 | 75 | 1022.2 |
| 20260901092821 | 70 | 42 | 9.0 | 18.0 | 0.00 | 0.00 | 0.00 | 75 | 1022.2 |
| 20260901092325 | 70 | 350 | 7.0 | 18.0 | 0.00 | 0.00 | 0.00 | 75 | 1022.2 |
| 20260901091821 | 70 | 35 | 7.0 | 16.0 | 0.00 | 0.00 | 0.00 | 76 | 1022.2 |
| 20260901091317 | 70 | 360 | 6.0 | 19.0 | 0.00 | 0.00 | 0.00 | 76 | 1022.2 |
| 20260901090821 | 70 | 360 | 11.0 | 19.0 | 0.00 | 0.00 | 0.00 | 75 | 1022.0 |
| 20260901090318 | 70 | 63 | 9.0 | 24.0 | 0.00 | 0.00 | 0.00 | 76 | 1022.1 |
| 20260901085839 | 69 | 49 | 12.0 | 24.0 | 0.00 | 0.00 | 0.00 | 76 | 1021.9 |
| 20260901085340 | 69 | 360 | 10.0 | 21.0 | 0.00 | 0.00 | 0.00 | 77 | 1022.1 |
| 20260901084817 | 69 | 360 | 9.0 | 16.0 | 0.00 | 0.00 | 0.00 | 77 | 1022.1 |
| 20260901084331 | 69 | 360 | 8.0 | 18.0 | 0.00 | 0.00 | 0.00 | 77 | 1022.0 |
| 20260901083835 | 69 | 293 | 6.0 | 17.0 | 0.00 | 0.00 | 0.00 | 77 | 1022.1 |
| 20260901083331 | 69 | 360 | 8.0 | 17.0 | 0.00 | 0.00 | 0.00 | 78 | 1022.0 |
| 20260901082837 | 68 | 355 | 7.0 | 16.0 | 0.00 | 0.00 | 0.00 | 78 | 1022.1 |
| 20260901082353 | 68 | 30 | 9.0 | 18.0 | 0.00 | 0.00 | 0.00 | 78 | 1022.2 |
| 20260901081836 | 68 | 360 | 9.0 | 19.0 | 0.00 | 0.00 | 0.00 | 78 | 1022.0 |
| 20260901081331 | 68 | 51 | 12.0 | 19.0 | 0.00 | 0.00 | 0.00 | 78 | 1022.1 |
| 20260901080827 | 68 | 39 | 6.0 | 21.0 | 0.00 | 0.00 | 0.00 | 78 | 1022.2 |
| 20260901080331 | 69 | 71 | 9.0 | 21.0 | 0.00 | 0.00 | 0.00 | 77 | 1022.0 |
| 20260901075856 | 69 | 51 | 6.0 | 18.0 | 0.00 | 0.00 | 0.00 | 77 | 1022.0 |
| 20260901075329 | 69 | 338 | 7.0 | 18.0 | 0.00 | 0.00 | 0.00 | 77 | 1022.0 |
| 20260901074827 | 69 | 360 | 7.0 | 12.0 | 0.00 | 0.00 | 0.00 | 78 | 1021.9 |
| 20260901074350 | 69 | 360 | 5.0 | 16.0 | 0.00 | 0.00 | 0.00 | 78 | 1021.9 |
| 20260901073825 | 69 | 311 | 8.0 | 16.0 | 0.00 | 0.00 | 0.00 | 78 | 1022.0 |
| 20260901073349 | 68 | 333 | 4.0 | 13.0 | 0.00 | 0.00 | 0.00 | 78 | 1022.1 |
| 20260901072824 | 68 | 360 | 5.0 | 11.0 | 0.00 | 0.00 | 0.00 | 78 | 1021.8 |
| 20260901072328 | 68 | 59 | 1.0 | 9.0 | 0.00 | 0.00 | 0.00 | 79 | 1021.8 |
| 20260901071824 | 68 | 289 | 5.0 | 10.0 | 0.00 | 0.00 | 0.00 | 79 | 1021.8 |
| 20260901071326 | 67 | 360 | 5.0 | 14.0 | 0.00 | 0.00 | 0.00 | 79 | 1021.8 |
| 20260901070823 | 67 | 344 | 8.0 | 14.0 | 0.00 | 0.00 | 0.00 | 79 | 1021.9 |
| 20260901070320 | 67 | 337 | 8.0 | 13.0 | 0.00 | 0.00 | 0.00 | 79 | 1021.8 |
| 20260901065823 | 67 | 80 | 3.0 | 10.0 | 0.00 | 0.00 | 0.00 | 80 | 1021.8 |
| 20260901065326 | 67 | 42 | 2.0 | 9.0 | 0.00 | 0.00 | 0.00 | 80 | 1021.7 |